DAL9994 RJAA-KSEA

Flight info

Callsign DAL9994
Flight time N/A
Altitude 37000
Route GULBO Y808 NOLAX Y812 ADNAP OTR5 KALNA KALIG CUTEE/N0494F390 DCT CARTO DCT 50N180E 51N170W 52N160W 53N150W/N0481F410 53N140W DCT MANJO DCT TOU MARNR8
Aircraft A359/H-SDE2E3GHIJ3J4J5LM1ORWXY/LB1D1

Departure

Time N/A
Airport Narita International Airport (RJAA)

Arrival

Time 2026-05-04 02:51
Airport Seattle–Tacoma International Airport (KSEA)
Time Latitude Longitude Altitude Speed Heading
2026-05-03 20:15 42.88324 155.50329 38626 ft 558 kts 38°
2026-05-03 20:15 42.93225 155.58561 38626 ft 559 kts 38°
2026-05-03 20:16 42.98129 155.66816 38628 ft 559 kts 38°
2026-05-03 20:16 43.02963 155.75087 38627 ft 562 kts 39°
2026-05-03 20:17 43.07783 155.83498 38627 ft 562 kts 39°
2026-05-03 20:17 43.12606 155.91933 38627 ft 561 kts 39°
2026-05-03 20:18 43.17426 156.00359 38627 ft 562 kts 39°
2026-05-03 20:18 43.22237 156.08793 38625 ft 560 kts 38°
2026-05-03 20:19 43.27034 156.17216 38624 ft 560 kts 39°
2026-05-03 20:19 43.31823 156.25647 38627 ft 560 kts 38°
2026-05-03 20:20 43.36609 156.34090 38628 ft 561 kts 38°
2026-05-03 20:20 43.41400 156.42564 38625 ft 561 kts 39°
2026-05-03 20:21 43.46147 156.51019 38628 ft 561 kts 39°
2026-05-03 20:21 43.50934 156.59543 38627 ft 561 kts 39°
2026-05-03 20:22 43.55703 156.68064 38630 ft 562 kts 39°
2026-05-03 20:22 43.60468 156.76614 38628 ft 562 kts 39°
2026-05-03 20:23 43.65231 156.85173 38625 ft 562 kts 39°
2026-05-03 20:23 43.69986 156.93741 38628 ft 561 kts 39°
2026-05-03 20:24 43.74705 157.02274 38626 ft 561 kts 39°
2026-05-03 20:24 43.79447 157.10857 38647 ft 562 kts 39°
2026-05-03 20:25 43.84197 157.19485 38648 ft 563 kts 39°
2026-05-03 20:25 43.88938 157.28139 38642 ft 563 kts 39°
2026-05-03 20:26 43.93676 157.36809 38642 ft 564 kts 40°
2026-05-03 20:26 43.98410 157.45499 38638 ft 564 kts 40°
2026-05-03 20:27 44.03140 157.54193 38686 ft 564 kts 40°
2026-05-03 20:27 44.07876 157.62929 38702 ft 566 kts 40°
2026-05-03 20:28 44.12586 157.71631 38704 ft 567 kts 40°
2026-05-03 20:28 44.17321 157.80431 38703 ft 568 kts 40°
2026-05-03 20:29 44.22051 157.89257 38701 ft 567 kts 40°
2026-05-03 20:29 44.26764 157.98068 38702 ft 567 kts 40°
2026-05-03 20:30 44.31479 158.06899 38701 ft 567 kts 40°
2026-05-03 20:30 44.36192 158.15753 38701 ft 568 kts 41°
2026-05-03 20:31 44.40891 158.24612 38701 ft 567 kts 40°
2026-05-03 20:31 44.45593 158.33503 38701 ft 568 kts 41°
2026-05-03 20:32 44.50282 158.42399 38702 ft 567 kts 41°
2026-05-03 20:32 44.54928 158.51251 38694 ft 567 kts 41°
2026-05-03 20:33 44.59597 158.60163 38693 ft 566 kts 41°
2026-05-03 20:33 44.64257 158.69072 38692 ft 566 kts 41°
2026-05-03 20:34 44.68907 158.78002 38695 ft 566 kts 42°
2026-05-03 20:34 44.73561 158.86972 38693 ft 566 kts 42°
2026-05-03 20:35 44.78193 158.95924 38692 ft 566 kts 42°
2026-05-03 20:35 44.82820 159.04894 38691 ft 567 kts 42°
2026-05-03 20:36 44.87454 159.13885 38704 ft 567 kts 42°
2026-05-03 20:36 44.92040 159.22845 38701 ft 566 kts 43°
2026-05-03 20:37 44.96645 159.31846 38701 ft 566 kts 43°
2026-05-03 20:37 45.01255 159.40886 38700 ft 566 kts 43°
2026-05-03 20:38 45.05836 159.49923 38705 ft 565 kts 43°
2026-05-03 20:38 45.10405 159.58960 38701 ft 565 kts 43°
2026-05-03 20:39 45.14976 159.68028 38701 ft 564 kts 43°
2026-05-03 20:39 45.19531 159.77092 38701 ft 564 kts 43°
2026-05-03 20:40 45.24062 159.86120 38702 ft 565 kts 44°
2026-05-03 20:40 45.28612 159.95216 38700 ft 565 kts 44°
2026-05-03 20:41 45.33158 160.04347 38700 ft 566 kts 44°
2026-05-03 20:41 45.37694 160.13492 38701 ft 565 kts 44°
2026-05-03 20:42 45.42217 160.22608 38702 ft 564 kts 44°
2026-05-03 20:42 45.46736 160.31761 38700 ft 564 kts 44°
2026-05-03 20:43 45.51242 160.40928 38701 ft 565 kts 45°
2026-05-03 20:43 45.55721 160.50062 38707 ft 565 kts 45°
2026-05-03 20:44 45.60218 160.59271 38701 ft 565 kts 45°
2026-05-03 20:44 45.64717 160.68485 38704 ft 565 kts 45°
2026-05-03 20:45 45.69195 160.77698 38701 ft 564 kts 45°
2026-05-03 20:45 45.73665 160.86911 38700 ft 563 kts 45°
2026-05-03 20:46 45.78085 160.96109 38702 ft 564 kts 45°
2026-05-03 20:46 45.82536 161.05367 38702 ft 564 kts 45°
2026-05-03 20:47 45.86969 161.14626 38704 ft 562 kts 45°
2026-05-03 20:47 45.91394 161.23880 38704 ft 561 kts 45°
2026-05-03 20:48 45.95802 161.33145 38699 ft 561 kts 46°
2026-05-03 20:48 46.00194 161.42399 38701 ft 560 kts 46°
2026-05-03 20:49 46.04589 161.51675 38700 ft 559 kts 47°
2026-05-03 20:49 46.08924 161.60888 38702 ft 557 kts 47°
2026-05-03 20:50 46.13271 161.70148 38704 ft 558 kts 47°
2026-05-03 20:50 46.17612 161.79411 38701 ft 558 kts 47°
2026-05-03 20:51 46.21954 161.88708 38703 ft 559 kts 47°
2026-05-03 20:51 46.26289 161.98035 38702 ft 558 kts 47°
2026-05-03 20:52 46.29881 162.05768 38701 ft 558 kts 47°
2026-05-03 20:52 46.34216 162.15096 38701 ft 558 kts 47°
2026-05-03 20:53 46.39205 162.25954 38704 ft 557 kts 48°
2026-05-03 20:53 46.42780 162.33815 38700 ft 558 kts 50°
2026-05-03 20:54 46.46659 162.43528 38707 ft 562 kts 54°
2026-05-03 20:54 46.52293 162.58450 38711 ft 560 kts 53°
2026-05-03 20:55 46.56092 162.68327 38710 ft 559 kts 53°
2026-05-03 20:55 46.59905 162.78163 38710 ft 558 kts 53°
2026-05-03 20:56 46.63705 162.87988 38710 ft 557 kts 53°
2026-05-03 20:56 46.67488 162.97812 38713 ft 556 kts 54°
2026-05-03 20:57 46.71254 163.07638 38710 ft 555 kts 54°
2026-05-03 20:57 46.74989 163.17409 38710 ft 555 kts 54°
2026-05-03 20:58 46.78737 163.27261 38712 ft 555 kts 54°
2026-05-03 20:58 46.82476 163.37134 38710 ft 555 kts 55°
2026-05-03 20:59 46.86203 163.46984 38707 ft 554 kts 55°
2026-05-03 20:59 46.89924 163.56860 38703 ft 554 kts 55°
2026-05-03 21:00 46.93005 163.65077 38701 ft 554 kts 55°
2026-05-03 21:00 46.97322 163.76633 38703 ft 553 kts 56°
2026-05-03 21:01 47.00997 163.86510 38701 ft 553 kts 56°
2026-05-03 21:01 47.04665 163.96405 38701 ft 552 kts 56°
2026-05-03 21:02 47.08299 164.06234 38702 ft 551 kts 57°
2026-05-03 21:02 47.11936 164.16114 38711 ft 550 kts 57°
2026-05-03 21:03 47.15595 164.26079 38711 ft 550 kts 57°
2026-05-03 21:03 47.19190 164.35915 38714 ft 550 kts 57°
2026-05-03 21:04 47.22797 164.45831 38710 ft 549 kts 57°
2026-05-03 21:04 47.26396 164.55757 38711 ft 549 kts 57°
2026-05-03 21:05 47.29987 164.65695 38714 ft 549 kts 58°
2026-05-03 21:05 47.33574 164.75646 38714 ft 549 kts 58°
2026-05-03 21:06 47.37148 164.85604 38711 ft 549 kts 58°
2026-05-03 21:06 47.40713 164.95588 38710 ft 549 kts 58°
2026-05-03 21:07 47.44250 165.05529 38711 ft 550 kts 58°
2026-05-03 21:07 47.47803 165.15544 38710 ft 550 kts 58°
2026-05-03 21:08 47.51343 165.25562 38710 ft 549 kts 59°
2026-05-03 21:08 47.54874 165.35594 38711 ft 549 kts 59°
2026-05-03 21:09 47.58392 165.45624 38711 ft 548 kts 59°
2026-05-03 21:09 47.61894 165.55661 38720 ft 548 kts 59°
2026-05-03 21:10 47.65389 165.65710 38714 ft 548 kts 59°
2026-05-03 21:10 47.68838 165.75679 38710 ft 545 kts 58°
2026-05-03 21:11 47.72296 165.85696 38720 ft 544 kts 58°
2026-05-03 21:11 47.75735 165.95700 38720 ft 543 kts 59°
2026-05-03 21:12 47.79174 166.05727 38720 ft 543 kts 59°
2026-05-03 21:12 47.82595 166.15736 38720 ft 543 kts 59°
2026-05-03 21:13 47.86007 166.25786 38721 ft 543 kts 59°
2026-05-03 21:13 47.89414 166.35844 38721 ft 544 kts 59°
2026-05-03 21:14 47.92793 166.45848 38721 ft 544 kts 59°
2026-05-03 21:14 47.96191 166.55969 38720 ft 544 kts 59°
2026-05-03 21:15 47.99577 166.66090 38720 ft 545 kts 59°
2026-05-03 21:15 48.02957 166.76210 38720 ft 544 kts 60°
2026-05-03 21:16 48.06312 166.86321 38721 ft 542 kts 60°
2026-05-03 21:16 48.09624 166.96347 38721 ft 541 kts 60°
2026-05-03 21:17 48.12408 167.04798 38720 ft 540 kts 60°
2026-05-03 21:17 48.16258 167.16516 38719 ft 540 kts 61°
2026-05-03 21:18 48.19563 167.26643 38720 ft 540 kts 61°
2026-05-03 21:18 48.22866 167.36781 38720 ft 541 kts 61°
2026-05-03 21:19 48.26156 167.46928 38719 ft 541 kts 61°
2026-05-03 21:19 48.29438 167.57116 38729 ft 542 kts 61°
2026-05-03 21:20 48.32703 167.67258 38730 ft 542 kts 61°
2026-05-03 21:20 48.35975 167.77455 38730 ft 542 kts 61°
2026-05-03 21:21 48.39240 167.87677 38730 ft 542 kts 62°
2026-05-03 21:21 48.42490 167.97918 38730 ft 542 kts 62°
2026-05-03 21:22 48.45734 168.08178 38730 ft 543 kts 62°
2026-05-03 21:22 48.48949 168.18376 38730 ft 542 kts 62°
2026-05-03 21:23 48.52178 168.28646 38729 ft 541 kts 62°
2026-05-03 21:23 48.55388 168.38920 38738 ft 541 kts 62°
2026-05-03 21:24 48.58591 168.49206 38739 ft 540 kts 62°
2026-05-03 21:24 48.61777 168.59474 38740 ft 540 kts 63°
2026-05-03 21:25 48.64953 168.69763 38739 ft 539 kts 63°
2026-05-03 21:25 48.67808 168.80175 38744 ft 541 kts 72°
2026-05-03 21:26 48.69808 168.91147 38739 ft 541 kts 74°
2026-05-03 21:26 48.71663 169.02204 38738 ft 541 kts 74°
2026-05-03 21:27 48.73499 169.13258 38739 ft 540 kts 75°
2026-05-03 21:27 48.75327 169.24300 38749 ft 540 kts 75°
2026-05-03 21:28 48.77141 169.35274 38748 ft 541 kts 75°
2026-05-03 21:28 48.78966 169.46337 38748 ft 541 kts 75°
2026-05-03 21:29 48.80779 169.57408 38748 ft 540 kts 75°
2026-05-03 21:29 48.82577 169.68474 38748 ft 540 kts 75°
2026-05-03 21:30 48.84362 169.79566 38748 ft 540 kts 75°
2026-05-03 21:30 48.86140 169.90653 38748 ft 541 kts 75°
2026-05-03 21:31 48.87910 170.01741 38748 ft 540 kts 76°
2026-05-03 21:31 48.89664 170.12818 38758 ft 539 kts 76°
2026-05-03 21:32 48.91407 170.23893 38757 ft 538 kts 76°
2026-05-03 21:32 48.93131 170.34931 38758 ft 538 kts 76°
2026-05-03 21:33 48.94850 170.46017 38758 ft 538 kts 76°
2026-05-03 21:33 48.96556 170.57117 38758 ft 537 kts 76°
2026-05-03 21:34 48.98245 170.68194 38758 ft 537 kts 76°
2026-05-03 21:34 48.99927 170.79278 38757 ft 537 kts 76°
2026-05-03 21:35 49.01592 170.90294 38757 ft 537 kts 77°
2026-05-03 21:35 49.03245 171.01355 38758 ft 536 kts 77°
2026-05-03 21:36 49.04892 171.12440 38758 ft 536 kts 77°
2026-05-03 21:36 49.06528 171.23528 38764 ft 535 kts 77°
2026-05-03 21:37 49.08152 171.34606 38779 ft 535 kts 77°
2026-05-03 21:37 49.09765 171.45682 38765 ft 535 kts 77°
2026-05-03 21:38 49.11370 171.56774 38765 ft 534 kts 77°
2026-05-03 21:38 49.12960 171.67846 38765 ft 533 kts 77°
2026-05-03 21:39 49.14530 171.78921 38772 ft 533 kts 78°
2026-05-03 21:39 49.16087 171.89976 38764 ft 532 kts 78°
2026-05-03 21:40 49.17629 172.00961 38755 ft 532 kts 78°
2026-05-03 21:40 49.19170 172.12021 38769 ft 531 kts 78°
2026-05-03 21:41 49.20440 172.21205 38763 ft 530 kts 78°
2026-05-03 21:41 49.21954 172.32238 38772 ft 530 kts 78°
2026-05-03 21:42 49.23466 172.43285 38762 ft 531 kts 78°
2026-05-03 21:42 49.24964 172.54343 38762 ft 530 kts 78°
2026-05-03 21:43 49.26445 172.65394 38778 ft 530 kts 79°
2026-05-03 21:43 49.27916 172.76456 38762 ft 531 kts 79°
2026-05-03 21:44 49.29372 172.87480 38763 ft 530 kts 79°
2026-05-03 21:44 49.30823 172.98574 38772 ft 531 kts 79°
2026-05-03 21:45 49.32267 173.09666 38772 ft 530 kts 79°
2026-05-03 21:45 49.33702 173.20768 38763 ft 530 kts 79°
2026-05-03 21:46 49.35126 173.31846 38763 ft 529 kts 79°
2026-05-03 21:46 49.36531 173.42929 38765 ft 529 kts 80°
2026-05-03 21:47 49.37922 173.53987 38763 ft 528 kts 80°
2026-05-03 21:47 49.39305 173.65053 38772 ft 527 kts 80°
2026-05-03 21:48 49.40677 173.76124 38780 ft 526 kts 80°
2026-05-03 21:48 49.42036 173.87154 38763 ft 526 kts 80°
2026-05-03 21:49 49.43372 173.98120 38762 ft 525 kts 81°
2026-05-03 21:49 49.44701 174.09154 38769 ft 524 kts 81°
2026-05-03 21:50 49.46010 174.20170 38787 ft 524 kts 81°
2026-05-03 21:50 49.47319 174.31183 38794 ft 523 kts 81°
2026-05-03 21:51 49.48622 174.42201 38800 ft 524 kts 81°
2026-05-03 21:51 49.49917 174.53253 38797 ft 524 kts 81°
2026-05-03 21:52 49.51199 174.64314 38793 ft 525 kts 81°
2026-05-03 21:52 49.52466 174.75371 38795 ft 525 kts 81°
2026-05-03 21:53 49.53715 174.86391 38792 ft 525 kts 81°
2026-05-03 21:53 49.54970 174.97478 38803 ft 525 kts 81°
2026-05-03 21:54 49.56210 175.08565 38802 ft 525 kts 82°
2026-05-03 21:54 49.57438 175.19666 38805 ft 525 kts 82°
2026-05-03 21:55 49.58653 175.30756 38803 ft 524 kts 82°
2026-05-03 21:55 49.59851 175.41782 38804 ft 524 kts 82°
2026-05-03 21:56 49.61046 175.52854 38803 ft 523 kts 82°
2026-05-03 21:56 49.62227 175.63915 38803 ft 522 kts 82°
2026-05-03 21:57 49.63395 175.74951 38803 ft 521 kts 82°
2026-05-03 21:57 49.64554 175.85990 38804 ft 520 kts 82°
2026-05-03 21:58 49.65682 175.96944 38803 ft 520 kts 83°
2026-05-03 21:58 49.66825 176.07966 38805 ft 519 kts 83°
2026-05-03 21:59 49.67946 176.18991 38805 ft 520 kts 83°
2026-05-03 21:59 49.69051 176.30025 38804 ft 520 kts 83°
2026-05-03 22:00 49.70148 176.41069 38803 ft 520 kts 83°
2026-05-03 22:00 49.71242 176.52132 38804 ft 521 kts 83°
2026-05-03 22:01 49.72311 176.63146 38804 ft 522 kts 83°
2026-05-03 22:01 49.73385 176.74259 38802 ft 522 kts 83°
2026-05-03 22:02 49.74452 176.85364 38806 ft 523 kts 83°
2026-05-03 22:02 49.75511 176.96494 38805 ft 524 kts 84°
2026-05-03 22:03 49.76562 177.07649 38805 ft 524 kts 84°
2026-05-03 22:03 49.77598 177.18750 38804 ft 524 kts 84°
2026-05-03 22:04 49.78616 177.29922 38804 ft 524 kts 84°
2026-05-03 22:04 49.79621 177.41089 38805 ft 523 kts 84°
2026-05-03 22:05 49.80619 177.52240 38804 ft 523 kts 84°
2026-05-03 22:05 49.81611 177.63399 38799 ft 523 kts 84°
2026-05-03 22:06 49.82589 177.74547 38799 ft 522 kts 84°
2026-05-03 22:06 49.83556 177.85695 38794 ft 521 kts 85°
2026-05-03 22:07 49.84507 177.96757 38794 ft 521 kts 85°
2026-05-03 22:07 49.85454 178.07901 38793 ft 521 kts 85°
2026-05-03 22:08 49.86384 178.19035 38797 ft 521 kts 85°
2026-05-03 22:08 49.87303 178.30175 38796 ft 521 kts 85°
2026-05-03 22:09 49.88218 178.41332 38788 ft 522 kts 85°
2026-05-03 22:10 49.89567 178.58038 38786 ft 523 kts 85°
2026-05-03 22:10 49.90455 178.69242 38784 ft 523 kts 85°
2026-05-03 22:11 49.91330 178.80479 38783 ft 524 kts 85°
2026-05-03 22:11 49.92201 178.91730 38783 ft 526 kts 85°
2026-05-03 22:12 49.93065 179.03009 38786 ft 526 kts 85°
2026-05-03 22:12 49.93916 179.14308 38789 ft 527 kts 85°
2026-05-03 22:13 49.94752 179.25545 38788 ft 528 kts 85°
2026-05-03 22:13 49.95583 179.36858 38784 ft 528 kts 85°
2026-05-03 22:14 49.96410 179.48193 38784 ft 528 kts 85°
2026-05-03 22:14 49.97223 179.59543 38784 ft 529 kts 85°
2026-05-03 22:15 49.98017 179.70893 38783 ft 528 kts 85°
2026-05-03 22:15 49.98799 179.82230 38787 ft 527 kts 86°
2026-05-03 22:16 49.99570 179.93566 38788 ft 527 kts 85°
2026-05-03 22:16 50.00729 -179.95168 38793 ft 529 kts 79°
2026-05-03 22:17 50.02289 -179.84067 38903 ft 528 kts 78°
2026-05-03 22:17 50.03903 -179.72923 39041 ft 529 kts 78°
2026-05-03 22:18 50.05505 -179.61763 39149 ft 528 kts 78°
2026-05-03 22:18 50.07100 -179.50585 39154 ft 528 kts 79°
2026-05-03 22:19 50.08675 -179.39377 39156 ft 528 kts 79°
2026-05-03 22:19 50.10220 -179.28274 39157 ft 526 kts 79°
2026-05-03 22:20 50.11763 -179.17138 39155 ft 526 kts 79°
2026-05-03 22:20 50.13296 -179.05996 39157 ft 525 kts 79°
2026-05-03 22:21 50.14810 -178.94860 39154 ft 524 kts 79°
2026-05-03 22:21 50.16263 -178.83799 39155 ft 518 kts 79°
2026-05-03 22:22 50.17775 -178.72877 39155 ft 521 kts 79°
2026-05-03 22:22 50.19261 -178.61789 39156 ft 524 kts 79°
2026-05-03 22:23 50.20725 -178.50667 39158 ft 523 kts 79°
2026-05-03 22:23 50.22193 -178.39530 39158 ft 523 kts 79°
2026-05-03 22:24 50.23639 -178.28392 39154 ft 523 kts 79°
2026-05-03 22:24 50.25078 -178.17228 39154 ft 523 kts 79°
2026-05-03 22:25 50.26499 -178.06132 39157 ft 524 kts 79°
2026-05-03 22:25 50.27919 -177.94959 39204 ft 523 kts 79°
2026-05-03 22:26 50.29335 -177.83774 39240 ft 525 kts 79°
2026-05-03 22:26 50.30727 -177.72566 39293 ft 524 kts 79°
2026-05-03 22:27 50.32116 -177.61375 39342 ft 523 kts 79°
2026-05-03 22:27 50.33492 -177.50177 39393 ft 523 kts 79°
2026-05-03 22:28 50.34854 -177.38994 39445 ft 524 kts 79°
2026-05-03 22:28 50.36205 -177.27784 39495 ft 523 kts 79°
2026-05-03 22:29 50.37541 -177.16639 39540 ft 523 kts 79°
2026-05-03 22:29 50.38875 -177.05423 39592 ft 523 kts 79°
2026-05-03 22:30 50.40199 -176.94204 39643 ft 523 kts 79°
2026-05-03 22:30 50.41512 -176.82985 39687 ft 523 kts 79°
2026-05-03 22:31 50.42596 -176.73580 39734 ft 524 kts 79°
2026-05-03 22:31 50.43878 -176.62393 39783 ft 524 kts 79°
2026-05-03 22:32 50.45159 -176.51155 39833 ft 523 kts 79°
2026-05-03 22:32 50.46431 -176.39899 39883 ft 524 kts 79°
2026-05-03 22:33 50.47692 -176.28633 39935 ft 524 kts 79°
2026-05-03 22:33 50.48942 -176.17352 39985 ft 524 kts 80°
2026-05-03 22:34 50.50181 -176.06051 40032 ft 525 kts 80°
2026-05-03 22:34 50.51410 -175.94740 40082 ft 525 kts 80°
2026-05-03 22:35 50.52621 -175.83501 40131 ft 525 kts 80°
2026-05-03 22:35 50.53828 -175.72181 40180 ft 524 kts 80°
2026-05-03 22:36 50.55023 -175.60878 40230 ft 524 kts 80°
2026-05-03 22:36 50.56207 -175.49563 40281 ft 524 kts 80°
2026-05-03 22:37 50.57379 -175.38246 40326 ft 524 kts 80°
2026-05-03 22:37 50.58542 -175.26917 40378 ft 524 kts 80°
2026-05-03 22:38 50.59692 -175.15591 40428 ft 524 kts 80°
2026-05-03 22:38 50.60831 -175.04258 40477 ft 524 kts 80°
2026-05-03 22:39 50.61959 -174.92927 40536 ft 523 kts 80°
2026-05-03 22:39 50.63068 -174.81673 40576 ft 523 kts 80°
2026-05-03 22:40 50.64173 -174.70342 40626 ft 523 kts 80°
2026-05-03 22:40 50.65268 -174.58998 40676 ft 523 kts 80°
2026-05-03 22:41 50.66352 -174.47639 40725 ft 523 kts 80°
2026-05-03 22:41 50.67416 -174.36373 40774 ft 523 kts 80°
2026-05-03 22:42 50.68477 -174.25027 40824 ft 523 kts 80°
2026-05-03 22:42 50.69526 -174.13679 40874 ft 523 kts 81°
2026-05-03 22:43 50.70565 -174.02316 40923 ft 523 kts 81°
2026-05-03 22:43 50.71586 -173.91020 40973 ft 523 kts 81°
2026-05-03 22:44 50.72601 -173.79664 41025 ft 523 kts 81°
2026-05-03 22:44 50.73606 -173.68300 41070 ft 523 kts 81°
2026-05-03 22:45 50.74600 -173.56926 41120 ft 523 kts 81°
2026-05-03 22:45 50.75583 -173.45546 41169 ft 522 kts 81°
2026-05-03 22:46 50.76554 -173.34174 41210 ft 522 kts 81°
2026-05-03 22:46 50.77514 -173.22797 41211 ft 523 kts 81°
2026-05-03 22:47 50.78459 -173.11460 41211 ft 523 kts 81°
2026-05-03 22:47 50.79399 -173.00053 41211 ft 523 kts 81°
2026-05-03 22:48 50.80326 -172.88652 41211 ft 523 kts 81°
2026-05-03 22:48 50.81242 -172.77250 41211 ft 523 kts 81°
2026-05-03 22:49 50.82148 -172.65832 41211 ft 522 kts 81°
2026-05-03 22:49 50.83041 -172.54434 41211 ft 522 kts 81°
2026-05-03 22:50 50.83918 -172.43088 41211 ft 522 kts 81°
2026-05-03 22:50 50.84790 -172.31667 41211 ft 522 kts 81°
2026-05-03 22:51 50.85649 -172.20258 41211 ft 522 kts 82°
2026-05-03 22:51 50.86499 -172.08834 41211 ft 522 kts 82°
2026-05-03 22:52 50.87336 -171.97416 41211 ft 522 kts 82°
2026-05-03 22:52 50.88162 -171.85994 41211 ft 522 kts 82°
2026-05-03 22:53 50.88977 -171.74563 41203 ft 522 kts 82°
2026-05-03 22:53 50.89742 -171.63134 41202 ft 522 kts 83°
2026-05-03 22:54 50.90518 -171.51707 41202 ft 522 kts 82°
2026-05-03 22:54 50.91296 -171.40347 41202 ft 522 kts 82°
2026-05-03 22:55 50.92081 -171.28912 41202 ft 522 kts 82°
2026-05-03 22:55 50.92867 -171.17471 41201 ft 522 kts 82°
2026-05-03 22:56 50.93625 -171.06047 41202 ft 521 kts 82°
2026-05-03 22:56 50.94362 -170.94610 41202 ft 521 kts 83°
2026-05-03 22:57 50.95085 -170.83176 41202 ft 521 kts 83°
2026-05-03 22:57 50.95796 -170.71748 41202 ft 521 kts 83°
2026-05-03 22:58 50.96498 -170.60302 41202 ft 521 kts 83°
2026-05-03 22:58 50.97190 -170.48849 41201 ft 521 kts 83°
2026-05-03 22:59 50.97869 -170.37402 41195 ft 521 kts 83°
2026-05-03 22:59 50.98532 -170.26041 41184 ft 521 kts 83°
2026-05-03 23:00 50.99193 -170.14522 41183 ft 521 kts 83°
2026-05-03 23:00 50.99839 -170.03154 41182 ft 521 kts 83°
2026-05-03 23:01 51.01171 -169.91887 41184 ft 518 kts 76°
2026-05-03 23:01 51.02766 -169.80695 41183 ft 518 kts 75°
2026-05-03 23:02 51.04391 -169.69527 41184 ft 519 kts 76°
2026-05-03 23:02 51.05981 -169.58410 41183 ft 519 kts 76°
2026-05-03 23:03 51.07562 -169.47203 41184 ft 519 kts 76°
2026-05-03 23:03 51.09136 -169.35992 41183 ft 520 kts 76°
2026-05-03 23:04 51.10699 -169.24751 41183 ft 519 kts 76°
2026-05-03 23:04 51.12251 -169.13534 41183 ft 519 kts 76°
2026-05-03 23:05 51.13787 -169.02283 41183 ft 520 kts 77°
2026-05-03 23:05 51.15310 -168.91028 41174 ft 520 kts 77°
2026-05-03 23:06 51.16839 -168.79756 41174 ft 520 kts 77°
2026-05-03 23:06 51.18348 -168.68476 41173 ft 521 kts 77°
2026-05-03 23:07 51.19839 -168.57173 41174 ft 521 kts 77°
2026-05-03 23:07 51.21320 -168.45943 41175 ft 520 kts 77°
2026-05-03 23:08 51.22789 -168.34645 41175 ft 521 kts 77°
2026-05-03 23:08 51.24245 -168.23338 41176 ft 519 kts 77°
2026-05-03 23:09 51.25703 -168.12026 41179 ft 520 kts 77°
2026-05-03 23:09 51.27145 -168.00702 41174 ft 520 kts 77°
2026-05-03 23:10 51.28584 -167.89385 41174 ft 520 kts 78°
2026-05-03 23:10 51.30006 -167.78051 41174 ft 520 kts 78°
2026-05-03 23:11 51.31414 -167.66715 41174 ft 520 kts 78°
2026-05-03 23:11 51.32812 -167.55372 41174 ft 520 kts 78°
2026-05-03 23:12 51.34190 -167.44095 41174 ft 520 kts 78°
2026-05-03 23:12 51.35567 -167.32735 41174 ft 520 kts 78°
2026-05-03 23:13 51.36932 -167.21379 41174 ft 520 kts 79°
2026-05-03 23:13 51.38286 -167.10014 41174 ft 519 kts 79°
2026-05-03 23:14 51.39628 -166.98647 41174 ft 519 kts 79°
2026-05-03 23:14 51.40957 -166.87295 41174 ft 519 kts 79°
2026-05-03 23:15 51.42278 -166.75907 41174 ft 519 kts 79°
2026-05-03 23:15 51.43585 -166.64536 41174 ft 519 kts 79°
2026-05-03 23:16 51.44883 -166.53152 41174 ft 518 kts 80°
2026-05-03 23:16 51.46161 -166.41827 41140 ft 518 kts 80°
2026-05-03 23:17 51.47435 -166.30441 41137 ft 518 kts 80°
2026-05-03 23:17 51.48698 -166.19054 41138 ft 518 kts 80°
2026-05-03 23:18 51.49949 -166.07664 41137 ft 518 kts 80°
2026-05-03 23:18 51.51187 -165.96281 41138 ft 518 kts 81°
2026-05-03 23:19 51.52408 -165.84959 41138 ft 518 kts 81°
2026-05-03 23:19 51.53624 -165.73564 41138 ft 518 kts 81°
2026-05-03 23:20 51.54829 -165.62163 41138 ft 517 kts 81°
2026-05-03 23:20 51.55824 -165.52672 41138 ft 517 kts 81°
2026-05-03 23:21 51.57008 -165.41269 41138 ft 517 kts 81°
2026-05-03 23:21 51.58181 -165.29865 41138 ft 517 kts 81°
2026-05-03 23:22 51.59922 -165.12713 41137 ft 517 kts 82°
2026-05-03 23:22 51.61060 -165.01370 41137 ft 517 kts 82°
2026-05-03 23:23 51.62195 -164.89935 41137 ft 517 kts 82°
2026-05-03 23:23 51.63318 -164.78504 41137 ft 517 kts 82°
2026-05-03 23:24 51.64432 -164.67048 41138 ft 517 kts 82°
2026-05-03 23:24 51.65532 -164.55610 41138 ft 517 kts 83°
2026-05-03 23:25 51.66623 -164.44154 41138 ft 517 kts 83°
2026-05-03 23:25 51.67701 -164.32698 41138 ft 517 kts 83°
2026-05-03 23:26 51.68769 -164.21232 41129 ft 517 kts 83°
2026-05-03 23:26 51.69826 -164.09765 41128 ft 517 kts 83°
2026-05-03 23:27 51.70864 -163.98369 41127 ft 517 kts 83°
2026-05-03 23:27 51.71899 -163.86886 41128 ft 517 kts 84°
2026-05-03 23:28 51.72921 -163.75407 41129 ft 517 kts 84°
2026-05-03 23:28 51.73931 -163.63942 41128 ft 517 kts 84°
2026-05-03 23:29 51.74930 -163.52464 41128 ft 516 kts 84°
2026-05-03 23:29 51.75919 -163.40969 41128 ft 516 kts 84°
2026-05-03 23:30 51.76896 -163.29483 41128 ft 516 kts 84°
2026-05-03 23:30 51.77854 -163.18084 41128 ft 515 kts 84°
2026-05-03 23:31 51.78807 -163.06605 41127 ft 515 kts 85°
2026-05-03 23:31 51.79751 -162.95107 41122 ft 515 kts 85°
2026-05-03 23:32 51.80680 -162.83636 41116 ft 514 kts 85°
2026-05-03 23:32 51.81592 -162.72241 41123 ft 514 kts 85°
2026-05-03 23:33 51.82507 -162.60756 41080 ft 514 kts 86°
2026-05-03 23:33 51.83391 -162.49294 41073 ft 513 kts 86°
2026-05-03 23:34 51.84270 -162.37846 41074 ft 513 kts 86°
2026-05-03 23:34 51.85142 -162.26399 41075 ft 513 kts 86°
2026-05-03 23:35 51.85999 -162.14925 41056 ft 513 kts 86°
2026-05-03 23:35 51.86843 -162.03469 41055 ft 512 kts 86°
2026-05-03 23:36 51.87671 -161.92098 41053 ft 513 kts 86°
2026-05-03 23:36 51.88506 -161.80616 41055 ft 513 kts 86°
2026-05-03 23:37 51.89330 -161.69115 41054 ft 512 kts 87°
2026-05-03 23:37 51.90127 -161.57637 41055 ft 512 kts 87°
2026-05-03 23:38 51.90924 -161.46217 41055 ft 512 kts 87°
2026-05-03 23:38 51.91694 -161.34751 41055 ft 510 kts 88°
2026-05-03 23:39 51.92454 -161.23309 41055 ft 511 kts 88°
2026-05-03 23:39 51.93216 -161.11857 41054 ft 511 kts 88°
2026-05-03 23:40 51.93968 -161.00422 41053 ft 509 kts 88°
2026-05-03 23:40 51.94692 -160.89056 41054 ft 510 kts 88°
2026-05-03 23:41 51.95415 -160.77616 41055 ft 510 kts 89°
2026-05-03 23:41 51.96125 -160.66169 41055 ft 510 kts 89°
2026-05-03 23:42 51.96823 -160.54728 41055 ft 509 kts 89°
2026-05-03 23:42 51.97511 -160.43283 41041 ft 509 kts 89°
2026-05-03 23:43 51.98186 -160.31854 41038 ft 509 kts 90°
2026-05-03 23:43 51.98846 -160.20505 41035 ft 508 kts 90°
2026-05-03 23:44 51.99500 -160.09063 41039 ft 508 kts 90°
2026-05-03 23:44 52.00404 -159.97662 41039 ft 513 kts 83°
2026-05-03 23:45 52.01951 -159.86320 41032 ft 514 kts 82°
2026-05-03 23:45 52.03586 -159.75012 41038 ft 515 kts 82°
2026-05-03 23:46 52.05208 -159.63760 41033 ft 514 kts 82°
2026-05-03 23:46 52.06817 -159.52425 41040 ft 514 kts 82°
2026-05-03 23:47 52.08409 -159.41075 41040 ft 515 kts 83°
2026-05-03 23:47 52.09991 -159.29705 41037 ft 515 kts 83°
2026-05-03 23:48 52.11562 -159.18336 41041 ft 514 kts 83°
2026-05-03 23:48 52.13108 -159.07060 41035 ft 514 kts 83°
2026-05-03 23:49 52.14652 -158.95709 41034 ft 513 kts 83°
2026-05-03 23:49 52.16185 -158.84357 41034 ft 513 kts 84°
2026-05-03 23:50 52.17459 -158.74847 41037 ft 513 kts 84°
2026-05-03 23:50 52.19213 -158.61656 41037 ft 512 kts 84°
2026-05-03 23:51 52.20708 -158.50316 41041 ft 511 kts 84°
2026-05-03 23:51 52.22193 -158.38967 41034 ft 511 kts 84°
2026-05-03 23:52 52.23660 -158.27653 41040 ft 510 kts 85°
2026-05-03 23:52 52.25110 -158.16391 41033 ft 510 kts 85°
2026-05-03 23:53 52.26554 -158.05076 41037 ft 509 kts 85°
2026-05-03 23:53 52.27989 -157.93736 41038 ft 509 kts 85°
2026-05-03 23:54 52.29413 -157.82397 41037 ft 509 kts 85°
2026-05-03 23:54 52.30826 -157.71039 41032 ft 509 kts 85°
2026-05-03 23:55 52.32219 -157.59772 41034 ft 509 kts 85°
2026-05-03 23:55 52.33613 -157.48393 41014 ft 510 kts 85°
2026-05-03 23:56 52.34994 -157.37024 41020 ft 510 kts 86°
2026-05-03 23:56 52.36367 -157.25626 41019 ft 511 kts 86°
2026-05-03 23:57 52.37732 -157.14190 41020 ft 512 kts 86°
2026-05-03 23:57 52.39086 -157.02744 41019 ft 512 kts 86°
2026-05-03 23:58 52.40431 -156.91279 41019 ft 513 kts 86°
2026-05-03 23:58 52.41765 -156.79807 41022 ft 513 kts 87°
2026-05-03 23:59 52.43084 -156.68359 41019 ft 513 kts 87°
2026-05-03 23:59 52.44397 -156.56860 41017 ft 514 kts 87°
2026-05-04 00:00 52.45701 -156.45337 41019 ft 514 kts 87°
2026-05-04 00:00 52.46993 -156.33813 41017 ft 514 kts 87°
2026-05-04 00:01 52.48277 -156.22249 41019 ft 515 kts 88°
2026-05-04 00:01 52.49541 -156.10763 41019 ft 514 kts 88°
2026-05-04 00:02 52.50803 -155.99190 41019 ft 514 kts 88°
2026-05-04 00:02 52.52052 -155.87624 41015 ft 515 kts 88°
2026-05-04 00:03 52.53290 -155.76043 41013 ft 515 kts 88°
2026-05-04 00:03 52.54518 -155.64446 41019 ft 515 kts 88°
2026-05-04 00:04 52.55733 -155.52847 41020 ft 516 kts 88°
2026-05-04 00:04 52.56934 -155.41289 41007 ft 516 kts 88°
2026-05-04 00:05 52.58130 -155.29657 41007 ft 516 kts 89°
2026-05-04 00:05 52.59315 -155.18006 41005 ft 516 kts 89°
2026-05-04 00:06 52.60487 -155.06363 41007 ft 517 kts 89°
2026-05-04 00:06 52.61652 -154.94674 41008 ft 517 kts 89°
2026-05-04 00:07 52.62611 -154.84964 41010 ft 517 kts 89°
2026-05-04 00:07 52.63756 -154.73264 41007 ft 517 kts 89°
2026-05-04 00:08 52.65070 -154.59671 41007 ft 517 kts 90°
2026-05-04 00:08 52.66006 -154.49882 41010 ft 517 kts 90°
2026-05-04 00:09 52.67103 -154.38303 41010 ft 517 kts 90°
2026-05-04 00:09 52.68205 -154.26532 41004 ft 517 kts 90°
2026-05-04 00:10 52.69287 -154.14838 41006 ft 514 kts 89°
2026-05-04 00:10 52.70355 -154.03197 41010 ft 512 kts 89°
2026-05-04 00:11 52.71408 -153.91570 41010 ft 512 kts 89°
2026-05-04 00:11 52.72443 -153.79995 41010 ft 513 kts 90°
2026-05-04 00:12 52.73476 -153.68322 41009 ft 514 kts 90°
2026-05-04 00:12 52.74499 -153.56642 41009 ft 514 kts 90°
2026-05-04 00:13 52.75511 -153.44939 41009 ft 515 kts 90°
2026-05-04 00:13 52.76511 -153.33233 41009 ft 515 kts 90°
2026-05-04 00:14 52.77501 -153.21513 41010 ft 516 kts 90°
2026-05-04 00:14 52.78480 -153.09772 41011 ft 516 kts 90°
2026-05-04 00:15 52.79449 -152.98014 41006 ft 517 kts 90°
2026-05-04 00:15 52.80401 -152.86314 41006 ft 517 kts 90°
2026-05-04 00:16 52.81348 -152.74522 41007 ft 517 kts 90°
2026-05-04 00:16 52.82284 -152.62725 41006 ft 518 kts 90°
2026-05-04 00:17 52.83206 -152.50958 41010 ft 518 kts 91°
2026-05-04 00:17 52.84118 -152.39155 41026 ft 517 kts 91°
2026-05-04 00:18 52.85020 -152.27325 41033 ft 517 kts 91°
2026-05-04 00:18 52.85908 -152.15522 41033 ft 517 kts 91°
2026-05-04 00:19 52.86786 -152.03697 41036 ft 517 kts 91°
2026-05-04 00:19 52.87646 -151.91932 41039 ft 518 kts 91°
2026-05-04 00:20 52.88501 -151.80069 41039 ft 519 kts 91°
2026-05-04 00:20 52.89347 -151.68190 41034 ft 519 kts 91°
2026-05-04 00:21 52.90180 -151.56314 41028 ft 519 kts 91°
2026-05-04 00:21 52.91001 -151.44441 41032 ft 519 kts 91°
2026-05-04 00:22 52.91810 -151.32546 41036 ft 519 kts 91°
2026-05-04 00:22 52.92608 -151.20641 41040 ft 520 kts 91°
2026-05-04 00:23 52.93394 -151.08728 41053 ft 519 kts 91°
2026-05-04 00:23 52.94163 -150.96892 41055 ft 520 kts 92°
2026-05-04 00:24 52.94927 -150.84962 41054 ft 520 kts 92°
2026-05-04 00:24 52.95678 -150.73028 41055 ft 520 kts 92°
2026-05-04 00:25 52.96418 -150.61087 41054 ft 520 kts 92°
2026-05-04 00:25 52.97144 -150.49161 41055 ft 520 kts 92°
2026-05-04 00:26 52.97859 -150.37210 41054 ft 520 kts 92°
2026-05-04 00:26 52.98564 -150.25240 41064 ft 521 kts 92°
2026-05-04 00:27 52.99252 -150.13357 41064 ft 520 kts 92°
2026-05-04 00:27 52.99933 -150.01384 41064 ft 520 kts 92°
2026-05-04 00:28 53.00526 -149.89413 41063 ft 519 kts 94°
2026-05-04 00:28 53.00975 -149.77457 41063 ft 519 kts 94°
2026-05-04 00:29 53.01417 -149.65471 41063 ft 520 kts 94°
2026-05-04 00:29 53.01871 -149.53479 41064 ft 520 kts 94°
2026-05-04 00:30 53.02323 -149.41480 41064 ft 520 kts 94°
2026-05-04 00:30 53.02761 -149.29572 41083 ft 519 kts 94°
2026-05-04 00:31 53.03188 -149.17589 41082 ft 519 kts 94°
2026-05-04 00:31 53.03602 -149.05605 41082 ft 519 kts 94°
2026-05-04 00:32 53.04004 -148.93619 41082 ft 520 kts 95°
2026-05-04 00:32 53.04394 -148.81630 41082 ft 519 kts 95°
2026-05-04 00:33 53.04955 -148.63714 41082 ft 519 kts 95°
2026-05-04 00:34 53.05315 -148.51719 41082 ft 520 kts 95°
2026-05-04 00:34 53.05663 -148.39716 41082 ft 520 kts 95°
2026-05-04 00:35 53.06000 -148.27715 41082 ft 519 kts 95°
2026-05-04 00:35 53.06324 -148.15703 41082 ft 519 kts 95°
2026-05-04 00:36 53.06634 -148.03781 41082 ft 519 kts 95°
2026-05-04 00:36 53.06933 -147.91776 41083 ft 519 kts 95°
2026-05-04 00:37 53.07220 -147.79755 41083 ft 520 kts 95°
2026-05-04 00:37 53.07497 -147.67705 41082 ft 521 kts 95°
2026-05-04 00:38 53.07762 -147.55652 41082 ft 521 kts 95°
2026-05-04 00:38 53.08015 -147.43600 41082 ft 521 kts 95°
2026-05-04 00:39 53.08254 -147.31623 41083 ft 521 kts 95°
2026-05-04 00:39 53.08482 -147.19569 41086 ft 521 kts 95°
2026-05-04 00:40 53.08697 -147.07578 41161 ft 521 kts 95°
2026-05-04 00:40 53.08901 -146.95452 41165 ft 521 kts 95°
2026-05-04 00:41 53.09091 -146.83455 41165 ft 521 kts 95°
2026-05-04 00:41 53.09271 -146.71392 41165 ft 522 kts 95°
2026-05-04 00:42 53.09438 -146.59301 41165 ft 522 kts 95°
2026-05-04 00:42 53.09594 -146.47215 41165 ft 522 kts 95°
2026-05-04 00:43 53.09737 -146.35133 41165 ft 523 kts 95°
2026-05-04 00:43 53.09867 -146.23108 41182 ft 523 kts 95°
2026-05-04 00:44 53.09986 -146.10998 41184 ft 523 kts 96°
2026-05-04 00:44 53.10093 -145.98889 41184 ft 523 kts 96°
2026-05-04 00:45 53.10185 -145.86782 41184 ft 524 kts 95°
2026-05-04 00:45 53.10267 -145.74633 41183 ft 525 kts 95°
2026-05-04 00:46 53.10338 -145.62576 41183 ft 525 kts 95°
2026-05-04 00:46 53.10396 -145.50424 41183 ft 525 kts 95°
2026-05-04 00:47 53.10441 -145.38272 41209 ft 525 kts 95°
2026-05-04 00:47 53.10473 -145.26130 41211 ft 525 kts 96°
2026-05-04 00:48 53.10494 -145.13974 41211 ft 525 kts 96°
2026-05-04 00:48 53.10502 -145.01831 41211 ft 525 kts 96°
2026-05-04 00:49 53.10497 -144.89679 41211 ft 525 kts 96°
2026-05-04 00:49 53.10480 -144.77526 41211 ft 525 kts 96°
2026-05-04 00:50 53.10451 -144.65463 41210 ft 525 kts 96°
2026-05-04 00:50 53.10410 -144.53290 41211 ft 526 kts 96°
2026-05-04 00:51 53.10356 -144.41132 41211 ft 526 kts 96°
2026-05-04 00:51 53.10290 -144.28945 41211 ft 526 kts 96°
2026-05-04 00:52 53.10212 -144.16767 41211 ft 526 kts 96°
2026-05-04 00:52 53.10120 -144.04593 41211 ft 526 kts 96°
2026-05-04 00:53 53.10016 -143.92398 41211 ft 527 kts 96°
2026-05-04 00:53 53.09899 -143.80197 41211 ft 527 kts 96°
2026-05-04 00:54 53.09772 -143.68070 41211 ft 528 kts 96°
2026-05-04 00:54 53.09655 -143.57900 41211 ft 527 kts 96°
2026-05-04 00:55 53.09504 -143.45685 41211 ft 527 kts 96°
2026-05-04 00:55 53.09312 -143.31499 41211 ft 527 kts 96°
2026-05-04 00:56 53.09164 -143.21332 41211 ft 527 kts 96°
2026-05-04 00:56 53.08975 -143.09131 41211 ft 527 kts 96°
2026-05-04 00:57 53.08773 -142.96926 41211 ft 528 kts 96°
2026-05-04 00:57 53.08559 -142.84721 41211 ft 528 kts 96°
2026-05-04 00:58 53.08332 -142.72498 41211 ft 527 kts 96°
2026-05-04 00:58 53.08095 -142.60371 41204 ft 528 kts 96°
2026-05-04 00:59 53.07843 -142.48187 41202 ft 528 kts 96°
2026-05-04 00:59 53.07579 -142.35973 41202 ft 528 kts 96°
2026-05-04 01:00 53.07302 -142.23772 41202 ft 528 kts 96°
2026-05-04 01:00 53.07013 -142.11544 41202 ft 528 kts 96°
2026-05-04 01:01 53.06712 -141.99346 41202 ft 528 kts 96°
2026-05-04 01:01 53.06396 -141.87134 41202 ft 528 kts 96°
2026-05-04 01:02 53.06070 -141.74931 41202 ft 529 kts 96°
2026-05-04 01:02 53.05731 -141.62714 41201 ft 529 kts 96°
2026-05-04 01:03 53.05380 -141.50519 41192 ft 528 kts 96°
2026-05-04 01:03 53.05015 -141.38323 41193 ft 528 kts 96°
2026-05-04 01:04 53.04639 -141.26143 41192 ft 528 kts 96°
2026-05-04 01:04 53.04250 -141.13946 41193 ft 528 kts 96°
2026-05-04 01:05 53.03851 -141.01840 41192 ft 528 kts 96°
2026-05-04 01:05 53.03438 -140.89669 41192 ft 528 kts 96°
2026-05-04 01:06 53.03012 -140.77486 41193 ft 528 kts 96°
2026-05-04 01:06 53.02572 -140.65293 41192 ft 528 kts 96°
2026-05-04 01:07 53.02121 -140.53112 41193 ft 528 kts 96°
2026-05-04 01:07 53.01661 -140.41012 41222 ft 528 kts 96°
2026-05-04 01:08 53.01184 -140.28825 41247 ft 528 kts 96°
2026-05-04 01:08 53.00696 -140.16645 41247 ft 528 kts 97°
2026-05-04 01:09 53.00179 -140.04494 41243 ft 527 kts 98°
2026-05-04 01:09 52.98590 -139.92784 41246 ft 521 kts 110°
2026-05-04 01:10 52.96384 -139.81334 41236 ft 521 kts 111°
2026-05-04 01:10 52.94082 -139.69932 41241 ft 521 kts 111°
2026-05-04 01:11 52.91779 -139.58537 41262 ft 521 kts 111°
2026-05-04 01:11 52.89477 -139.47127 41274 ft 521 kts 111°
2026-05-04 01:12 52.87174 -139.35734 41275 ft 521 kts 111°
2026-05-04 01:12 52.84874 -139.24425 41276 ft 521 kts 111°
2026-05-04 01:13 52.82549 -139.13068 41276 ft 521 kts 111°
2026-05-04 01:13 52.80212 -139.01714 41266 ft 522 kts 111°
2026-05-04 01:14 52.77865 -138.90376 41266 ft 522 kts 111°
2026-05-04 01:14 52.75503 -138.79030 41266 ft 522 kts 111°
2026-05-04 01:15 52.73131 -138.67701 41266 ft 522 kts 111°
2026-05-04 01:15 52.70746 -138.56373 41266 ft 522 kts 111°
2026-05-04 01:16 52.68368 -138.45143 41266 ft 522 kts 111°
2026-05-04 01:16 52.65964 -138.33851 41261 ft 522 kts 111°
2026-05-04 01:17 52.63550 -138.22573 41257 ft 522 kts 111°
2026-05-04 01:17 52.61125 -138.11311 41257 ft 521 kts 111°
2026-05-04 01:18 52.58693 -138.00076 41263 ft 521 kts 111°
2026-05-04 01:18 52.56246 -137.88838 41275 ft 522 kts 111°
2026-05-04 01:19 52.53806 -137.77688 41276 ft 522 kts 111°
2026-05-04 01:19 52.51337 -137.66465 41275 ft 523 kts 111°
2026-05-04 01:20 52.48852 -137.55231 41275 ft 523 kts 111°
2026-05-04 01:20 52.46358 -137.44016 41275 ft 523 kts 111°
2026-05-04 01:21 52.43852 -137.32811 41274 ft 524 kts 111°
2026-05-04 01:21 52.41350 -137.21681 41266 ft 524 kts 111°
2026-05-04 01:22 52.38815 -137.10467 41266 ft 524 kts 111°
2026-05-04 01:22 52.36270 -136.99269 41266 ft 525 kts 111°
2026-05-04 01:23 52.33713 -136.88073 41266 ft 525 kts 111°
2026-05-04 01:23 52.31160 -136.76957 41243 ft 525 kts 111°
2026-05-04 01:24 52.28581 -136.65787 41241 ft 525 kts 111°
2026-05-04 01:24 52.25989 -136.54617 41237 ft 525 kts 111°
2026-05-04 01:25 52.23390 -136.43474 41237 ft 526 kts 111°
2026-05-04 01:25 52.20778 -136.32337 41240 ft 525 kts 111°
2026-05-04 01:26 52.18162 -136.21236 41228 ft 525 kts 111°
2026-05-04 01:26 52.15531 -136.10131 41193 ft 525 kts 111°
2026-05-04 01:27 52.12914 -135.99141 41193 ft 524 kts 111°
2026-05-04 01:27 52.10264 -135.88070 41193 ft 524 kts 111°
2026-05-04 01:28 52.07606 -135.77019 41193 ft 524 kts 111°
2026-05-04 01:28 52.04934 -135.65971 41199 ft 525 kts 111°
2026-05-04 01:29 52.02266 -135.54991 41202 ft 525 kts 111°
2026-05-04 01:29 51.99572 -135.43969 41201 ft 525 kts 111°
2026-05-04 01:30 51.96620 -135.33130 41201 ft 524 kts 114°
2026-05-04 01:30 51.93631 -135.22359 41211 ft 523 kts 113°
2026-05-04 01:31 51.90660 -135.11609 41212 ft 523 kts 113°
2026-05-04 01:31 51.87685 -135.00865 41211 ft 523 kts 113°
2026-05-04 01:32 51.84720 -134.90194 41211 ft 523 kts 113°
2026-05-04 01:32 51.81721 -134.79450 41211 ft 523 kts 113°
2026-05-04 01:33 51.78714 -134.68727 41211 ft 524 kts 113°
2026-05-04 01:33 51.75699 -134.58022 41211 ft 524 kts 113°
2026-05-04 01:34 51.72671 -134.47319 41211 ft 524 kts 113°
2026-05-04 01:34 51.69633 -134.36629 41202 ft 525 kts 113°
2026-05-04 01:35 51.66599 -134.26003 41202 ft 525 kts 113°
2026-05-04 01:35 51.63535 -134.15322 41202 ft 526 kts 113°
2026-05-04 01:36 51.60461 -134.04651 41202 ft 526 kts 114°
2026-05-04 01:36 51.57371 -133.93973 41202 ft 526 kts 113°
2026-05-04 01:37 51.54273 -133.83316 41202 ft 526 kts 114°
2026-05-04 01:37 51.51171 -133.72696 41202 ft 525 kts 114°
2026-05-04 01:38 51.48060 -133.62089 41202 ft 525 kts 114°
2026-05-04 01:38 51.44960 -133.51564 41202 ft 524 kts 113°
2026-05-04 01:39 51.41832 -133.40996 41192 ft 524 kts 114°
2026-05-04 01:39 51.38703 -133.30468 41193 ft 524 kts 113°
2026-05-04 01:40 51.37100 -133.25092 41192 ft 523 kts 113°
2026-05-04 01:40 51.33958 -133.14590 41193 ft 523 kts 113°
2026-05-04 01:41 51.30808 -133.04108 41193 ft 522 kts 113°
2026-05-04 01:41 51.27673 -132.93720 41192 ft 522 kts 113°
2026-05-04 01:42 51.24511 -132.83285 41193 ft 522 kts 113°
2026-05-04 01:42 51.21333 -132.72844 41193 ft 522 kts 113°
2026-05-04 01:43 51.18149 -132.62431 41184 ft 522 kts 114°
2026-05-04 01:43 51.15495 -132.53783 41184 ft 522 kts 113°
2026-05-04 01:44 51.12296 -132.43397 41183 ft 522 kts 114°
2026-05-04 01:44 51.09089 -132.33035 41183 ft 522 kts 114°
2026-05-04 01:45 51.05867 -132.22665 41176 ft 522 kts 114°
2026-05-04 01:45 51.01026 -132.07169 41174 ft 521 kts 114°
2026-05-04 01:46 50.97792 -131.96871 41176 ft 521 kts 114°
2026-05-04 01:46 50.94545 -131.86574 41165 ft 520 kts 114°
2026-05-04 01:47 50.91304 -131.76339 41162 ft 520 kts 114°
2026-05-04 01:47 50.88070 -131.66170 41156 ft 519 kts 114°
2026-05-04 01:48 50.84812 -131.55965 41148 ft 518 kts 114°
2026-05-04 01:48 50.81554 -131.45802 41141 ft 518 kts 114°
2026-05-04 01:49 50.78284 -131.35645 41087 ft 518 kts 114°
2026-05-04 01:49 50.75006 -131.25505 41083 ft 518 kts 114°
2026-05-04 01:50 50.71722 -131.15386 41083 ft 517 kts 114°
2026-05-04 01:50 50.68451 -131.05348 41070 ft 517 kts 114°
2026-05-04 01:51 50.65153 -130.95270 41075 ft 517 kts 114°
2026-05-04 01:51 50.61842 -130.85191 41066 ft 516 kts 114°
2026-05-04 01:52 50.58535 -130.75165 41063 ft 515 kts 114°
2026-05-04 01:52 50.55224 -130.65168 41063 ft 514 kts 114°
2026-05-04 01:53 50.51931 -130.55263 41057 ft 514 kts 114°
2026-05-04 01:53 50.48616 -130.45333 41054 ft 513 kts 114°
2026-05-04 01:54 50.45289 -130.35407 41054 ft 512 kts 114°
2026-05-04 01:54 50.41963 -130.25519 41048 ft 511 kts 114°
2026-05-04 01:55 50.38659 -130.15738 41049 ft 510 kts 114°
2026-05-04 01:55 50.35332 -130.05924 41044 ft 510 kts 114°
2026-05-04 01:56 50.31999 -129.96133 41038 ft 509 kts 114°
2026-05-04 01:56 50.28659 -129.86359 41039 ft 509 kts 114°
2026-05-04 01:57 50.25310 -129.76594 41038 ft 509 kts 114°
2026-05-04 01:57 50.21958 -129.66862 41033 ft 509 kts 114°
2026-05-04 01:58 50.18595 -129.57132 41036 ft 509 kts 114°
2026-05-04 01:58 50.15240 -129.47462 41033 ft 510 kts 114°
2026-05-04 01:59 50.11853 -129.37738 41022 ft 510 kts 114°
2026-05-04 01:59 50.08452 -129.28011 41029 ft 511 kts 114°
2026-05-04 02:00 50.05041 -129.18293 41024 ft 512 kts 114°
2026-05-04 02:00 50.01614 -129.08565 41032 ft 512 kts 114°
2026-05-04 02:01 49.98178 -128.98852 41021 ft 511 kts 114°
2026-05-04 02:01 49.94776 -128.89271 41018 ft 508 kts 114°
2026-05-04 02:02 49.91358 -128.79677 41013 ft 507 kts 114°
2026-05-04 02:02 49.87931 -128.70093 41014 ft 507 kts 114°
2026-05-04 02:03 49.84525 -128.60603 41023 ft 507 kts 114°
2026-05-04 02:03 49.81083 -128.51049 41009 ft 508 kts 114°
2026-05-04 02:04 49.77622 -128.41479 41007 ft 508 kts 114°
2026-05-04 02:04 49.74160 -128.31942 41008 ft 508 kts 114°
2026-05-04 02:05 49.70708 -128.22464 41009 ft 509 kts 114°
2026-05-04 02:05 49.67223 -128.12933 41003 ft 509 kts 114°
2026-05-04 02:06 49.63729 -128.03414 41000 ft 509 kts 114°
2026-05-04 02:06 49.60221 -127.93891 40999 ft 509 kts 114°
2026-05-04 02:07 49.56715 -127.84407 40992 ft 509 kts 114°
2026-05-04 02:07 49.53193 -127.74914 40990 ft 509 kts 114°
2026-05-04 02:08 49.49696 -127.65523 40989 ft 509 kts 114°
2026-05-04 02:08 49.46167 -127.56081 40990 ft 509 kts 114°
2026-05-04 02:09 49.42629 -127.46650 40973 ft 508 kts 114°
2026-05-04 02:09 49.39091 -127.37252 40971 ft 508 kts 114°
2026-05-04 02:10 49.35565 -127.27917 40953 ft 507 kts 114°
2026-05-04 02:10 49.32018 -127.18564 40952 ft 507 kts 114°
2026-05-04 02:11 49.28463 -127.09221 40952 ft 507 kts 114°
2026-05-04 02:11 49.24908 -126.99911 40944 ft 507 kts 114°
2026-05-04 02:12 49.21342 -126.90603 40943 ft 507 kts 115°
2026-05-04 02:12 49.17771 -126.81318 40943 ft 507 kts 115°
2026-05-04 02:13 49.14191 -126.72041 40943 ft 507 kts 115°
2026-05-04 02:13 49.10598 -126.62765 40943 ft 507 kts 115°
2026-05-04 02:14 49.07002 -126.53512 40936 ft 507 kts 115°
2026-05-04 02:14 49.03399 -126.44274 40934 ft 506 kts 115°
2026-05-04 02:15 48.99792 -126.35057 40934 ft 506 kts 115°
2026-05-04 02:15 48.96202 -126.25916 40934 ft 506 kts 115°
2026-05-04 02:16 48.92582 -126.16730 40935 ft 506 kts 115°
2026-05-04 02:16 48.88961 -126.07575 40934 ft 505 kts 115°
2026-05-04 02:17 48.85338 -125.98444 40934 ft 505 kts 115°
2026-05-04 02:17 48.81703 -125.89315 40934 ft 505 kts 115°
2026-05-04 02:18 48.78064 -125.80207 40934 ft 504 kts 115°
2026-05-04 02:18 48.74421 -125.71121 40934 ft 504 kts 115°
2026-05-04 02:19 48.70775 -125.62057 40925 ft 504 kts 115°
2026-05-04 02:19 48.67140 -125.53052 40925 ft 504 kts 115°
2026-05-04 02:20 48.63477 -125.44008 40925 ft 503 kts 115°
2026-05-04 02:20 48.59814 -125.34995 40925 ft 503 kts 115°
2026-05-04 02:21 48.57029 -125.28162 40918 ft 503 kts 115°
2026-05-04 02:22 48.55551 -125.24544 40915 ft 503 kts 115°
2026-05-04 02:22 48.51893 -125.15617 40917 ft 493 kts 115°
2026-05-04 02:23 48.48303 -125.06875 40916 ft 489 kts 116°
2026-05-04 02:23 48.44723 -124.98180 40906 ft 489 kts 116°
2026-05-04 02:24 48.41132 -124.89491 40906 ft 488 kts 116°
2026-05-04 02:24 48.37558 -124.80872 40897 ft 488 kts 116°
2026-05-04 02:25 48.33961 -124.72227 40897 ft 488 kts 116°
2026-05-04 02:25 48.30484 -124.63510 40896 ft 481 kts 108°
2026-05-04 02:26 48.29431 -124.58815 40903 ft 469 kts 97°
2026-05-04 02:26 48.28745 -124.54055 40894 ft 467 kts 95°
2026-05-04 02:26 48.27441 -124.44494 40902 ft 467 kts 96°
2026-05-04 02:27 48.26109 -124.34934 40894 ft 467 kts 96°
2026-05-04 02:27 48.24767 -124.25425 40833 ft 462 kts 96°
2026-05-04 02:28 48.24098 -124.20722 40249 ft 461 kts 96°
2026-05-04 02:28 48.23427 -124.16014 39342 ft 461 kts 96°
2026-05-04 02:28 48.22755 -124.11327 38411 ft 458 kts 95°
2026-05-04 02:28 48.22090 -124.06672 37334 ft 456 kts 95°
2026-05-04 02:29 48.21422 -124.02019 36158 ft 455 kts 95°
2026-05-04 02:29 48.20763 -123.97442 34930 ft 455 kts 95°
2026-05-04 02:29 48.20028 -123.92798 33745 ft 463 kts 99°
2026-05-04 02:29 48.18907 -123.88203 33451 ft 478 kts 108°
2026-05-04 02:30 48.17307 -123.83749 33432 ft 492 kts 116°
2026-05-04 02:30 48.15196 -123.79666 33325 ft 500 kts 127°
2026-05-04 02:30 48.12708 -123.75993 33082 ft 503 kts 131°
2026-05-04 02:30 48.10143 -123.72423 32832 ft 504 kts 131°
2026-05-04 02:31 48.08437 -123.70055 32656 ft 504 kts 131°
2026-05-04 02:31 48.05865 -123.66476 32413 ft 505 kts 131°
2026-05-04 02:31 48.03294 -123.62898 32156 ft 505 kts 131°
2026-05-04 02:31 48.00717 -123.59309 31904 ft 506 kts 132°
2026-05-04 02:32 47.98149 -123.55729 31643 ft 507 kts 132°
2026-05-04 02:32 47.95571 -123.52141 31395 ft 506 kts 132°
2026-05-04 02:32 47.92993 -123.48558 31145 ft 506 kts 133°
2026-05-04 02:32 47.90411 -123.44975 30897 ft 506 kts 133°
2026-05-04 02:33 47.87841 -123.41415 30517 ft 504 kts 133°
2026-05-04 02:33 47.85269 -123.37861 29527 ft 506 kts 134°
2026-05-04 02:33 47.82686 -123.34290 28617 ft 506 kts 134°
2026-05-04 02:33 47.80110 -123.30730 27784 ft 504 kts 134°
2026-05-04 02:34 47.77547 -123.27195 27007 ft 501 kts 134°
2026-05-04 02:34 47.74996 -123.23686 26267 ft 497 kts 135°
2026-05-04 02:34 47.72466 -123.20212 25529 ft 494 kts 135°
2026-05-04 02:34 47.69992 -123.16815 24826 ft 488 kts 135°
2026-05-04 02:35 47.67476 -123.13367 24113 ft 483 kts 135°
2026-05-04 02:35 47.65047 -123.10042 23407 ft 479 kts 135°
2026-05-04 02:35 47.62609 -123.06710 22668 ft 474 kts 135°
2026-05-04 02:35 47.60191 -123.03405 21967 ft 469 kts 136°
2026-05-04 02:36 47.57795 -123.00142 21257 ft 465 kts 136°
2026-05-04 02:36 47.55430 -122.96925 20543 ft 459 kts 136°
2026-05-04 02:36 47.53087 -122.93739 19686 ft 454 kts 136°
2026-05-04 02:36 47.50774 -122.90594 18852 ft 448 kts 136°
2026-05-04 02:37 47.48514 -122.87531 18012 ft 443 kts 136°
2026-05-04 02:37 47.46258 -122.84478 17169 ft 438 kts 136°
2026-05-04 02:37 47.44027 -122.81456 16477 ft 430 kts 136°
2026-05-04 02:37 47.41835 -122.78494 15609 ft 425 kts 136°
2026-05-04 02:38 47.39660 -122.75560 14713 ft 422 kts 137°
2026-05-04 02:38 47.37501 -122.72651 13887 ft 418 kts 137°
2026-05-04 02:38 47.35746 -122.70285 13225 ft 399 kts 137°
2026-05-04 02:38 47.33729 -122.67566 12487 ft 393 kts 137°
2026-05-04 02:39 47.31713 -122.64852 11709 ft 392 kts 137°
2026-05-04 02:39 47.29711 -122.62165 10970 ft 381 kts 137°
2026-05-04 02:39 47.27827 -122.59639 10664 ft 346 kts 137°
2026-05-04 02:39 47.26143 -122.57375 10582 ft 312 kts 137°
2026-05-04 02:40 47.24613 -122.55324 10484 ft 287 kts 137°
2026-05-04 02:40 47.23159 -122.53383 10379 ft 278 kts 137°
2026-05-04 02:40 47.21723 -122.51467 10254 ft 279 kts 137°
2026-05-04 02:40 47.20303 -122.49573 10129 ft 279 kts 137°
2026-05-04 02:41 47.18924 -122.47733 10029 ft 256 kts 137°
2026-05-04 02:41 47.17653 -122.46037 9919 ft 239 kts 137°
2026-05-04 02:41 47.16421 -122.44395 9727 ft 240 kts 137°
2026-05-04 02:41 47.15183 -122.42741 9535 ft 240 kts 137°
2026-05-04 02:42 47.13945 -122.41092 9225 ft 240 kts 137°
2026-05-04 02:42 47.12703 -122.39441 8905 ft 241 kts 137°
2026-05-04 02:42 47.11460 -122.37797 8588 ft 241 kts 137°
2026-05-04 02:42 47.10257 -122.36199 8296 ft 241 kts 137°
2026-05-04 02:43 47.09022 -122.34550 7997 ft 240 kts 137°
2026-05-04 02:43 47.08016 -122.32635 7628 ft 239 kts 110°
2026-05-04 02:43 47.07939 -122.30261 7322 ft 234 kts 71°
2026-05-04 02:43 47.08855 -122.28375 6992 ft 230 kts 33°
2026-05-04 02:44 47.10373 -122.27741 6618 ft 231 kts 355°
2026-05-04 02:44 47.11879 -122.28485 6326 ft 229 kts 334°
2026-05-04 02:44 47.13305 -122.29472 6050 ft 228 kts 336°
2026-05-04 02:44 47.14767 -122.30313 5907 ft 222 kts 342°
2026-05-04 02:45 47.16259 -122.30839 5607 ft 220 kts 351°
2026-05-04 02:45 47.17762 -122.31333 5242 ft 223 kts 346°
2026-05-04 02:45 47.19236 -122.31830 5160 ft 209 kts 348°
2026-05-04 02:45 47.20623 -122.32194 5052 ft 196 kts 351°
2026-05-04 02:46 47.21940 -122.32433 4895 ft 188 kts 357°
2026-05-04 02:46 47.23230 -122.32402 4667 ft 181 kts
2026-05-04 02:46 47.24429 -122.32076 4463 ft 169 kts 15°
2026-05-04 02:46 47.25537 -122.31589 4231 ft 166 kts 18°
2026-05-04 02:47 47.26639 -122.31102 3953 ft 165 kts 13°
2026-05-04 02:47 47.27764 -122.30798 3611 ft 162 kts
2026-05-04 02:47 47.28885 -122.30741 3284 ft 161 kts 358°
2026-05-04 02:47 47.30000 -122.30823 2972 ft 160 kts 357°
2026-05-04 02:48 47.31097 -122.30890 2620 ft 158 kts 357°
2026-05-04 02:48 47.32199 -122.30922 2245 ft 157 kts 359°
2026-05-04 02:48 47.33263 -122.30913 1985 ft 148 kts 360°
2026-05-04 02:48 47.34257 -122.30903 1777 ft 137 kts 359°
2026-05-04 02:49 47.35189 -122.30873 1595 ft 134 kts
2026-05-04 02:49 47.36181 -122.30829 1474 ft 150 kts
2026-05-04 02:49 47.37243 -122.30779 1330 ft 151 kts
2026-05-04 02:49 47.38302 -122.30784 1175 ft 158 kts 356°
2026-05-04 02:50 47.39440 -122.30829 956 ft 160 kts 358°
2026-05-04 02:50 47.40514 -122.30864 798 ft 152 kts 359°
2026-05-04 02:50 47.41564 -122.30855 651 ft 146 kts
2026-05-04 02:50 47.42550 -122.30824 472 ft 142 kts
2026-05-04 02:51 47.43523 -122.30808 384 ft 136 kts 359°
2026-05-04 02:51 47.44372 -122.30800 399 ft 104 kts
2026-05-04 02:51 47.44968 -122.30788 408 ft 56 kts
2026-05-04 02:51 47.45175 -122.30781 419 ft 17 kts 13°
2026-05-04 02:52 47.45229 -122.30686 415 ft 10 kts 83°
2026-05-04 02:52 47.45186 -122.30631 413 ft 10 kts 173°
2026-05-04 02:52 47.45093 -122.30626 421 ft 16 kts 179°
2026-05-04 02:52 47.44966 -122.30626 412 ft 21 kts 180°
2026-05-04 02:53 47.44803 -122.30627 411 ft 26 kts 180°
2026-05-04 02:53 47.44612 -122.30631 406 ft 29 kts 181°
2026-05-04 02:53 47.44428 -122.30634 399 ft 21 kts 181°
2026-05-04 02:53 47.44309 -122.30636 396 ft 16 kts 180°
2026-05-04 02:54 47.44181 -122.30636 392 ft 21 kts 180°
2026-05-04 02:54 47.44052 -122.30636 391 ft 10 kts 180°
2026-05-04 02:54 47.44004 -122.30614 390 ft 8 kts 140°
2026-05-04 02:54 47.43991 -122.30538 390 ft 8 kts 88°
2026-05-04 02:55 47.43992 -122.30417 392 ft 6 kts 89°
2026-05-04 02:55 47.43997 -122.30349 393 ft 7 kts 79°
2026-05-04 02:55 47.44019 -122.30275 390 ft 8 kts 57°
2026-05-04 02:56 47.44047 -122.30196 394 ft 9 kts 75°
2026-05-04 02:56 47.44038 -122.30104 396 ft 10 kts 116°
2026-05-04 02:56 47.43990 -122.30025 392 ft 9 kts 135°
2026-05-04 02:56 47.43946 -122.29965 391 ft 8 kts 146°
2026-05-04 02:57 47.43905 -122.29954 395 ft 1 kts 186°
2026-05-04 02:57 47.43886 -122.29958 394 ft 5 kts 187°
2026-05-04 02:57 47.43842 -122.29964 393 ft 5 kts 181°
2026-05-04 02:57 47.43807 -122.29978 392 ft 2 kts 223°
2026-05-04 02:58 47.43804 -122.29989 392 ft 1 kts 250°
2026-05-04 02:58 47.43806 -122.30006 392 ft 2 kts 280°
2026-05-04 02:58 47.43817 -122.30030 393 ft 3 kts 310°
2026-05-04 02:58 47.43828 -122.30045 393 ft 1 kts 316°
2026-05-04 02:59 47.43831 -122.30049 393 ft 0 kts 316°
2026-05-04 02:59 47.43831 -122.30050 393 ft 1 kts 316°
2026-05-04 02:59 47.43834 -122.30053 393 ft 2 kts 316°
2026-05-04 02:59 47.43845 -122.30069 393 ft 0 kts 316°